Nur fliegen ist schöner ....

Willkommen beim Flugservice Bautzen GmbH

Wir sind eine nach europäischen Richtlinien zugelassene Flugschule und lizenziertes Luftfahrtunternehmen. Bei uns können sie nicht nur Rundflüge über die Oberlausitz oder Sachsen buchen, sondern in unserer Flugschule selber das Fliegen erlernen. Erfahrene Fluglehrer stehen ihnen dabei zur Seite.

Wir bieten Ihnen außerdem spezielle Flüge zur Vermessung oder Fotoflüge für Luftbildaufnahmen an. In Zusammenarbeit mit dem Fallschirmsportclub Dresden und dem Cottbuser Fallschirmsportclub setzen wir am Flugplatz Bautzen und Neuhausen Fallschirmspringer ab.
Schauen sie sich in Ruhe bei uns um und wenn sie Fragen haben oder weitere Informationen benötigen, scheuen sie sich nicht Kontakt mit uns aufzunehmen.

Rundflüge können sie ganz leicht auch online in unserem Shop buchen.

Terminkalender

Letzter Monat Februar 2019 Nächster Monat
Mo Di Mi Do Fr Sa So
week 5 1 2 3
week 6 4 5 6 7 8 9 10
week 7 11 12 13 14 15 16 17
week 8 18 19 20 21 22 23 24
week 9 25 26 27 28

Flugwetterinfo

[Quelle: ADDS]
METAR
EDDC 232120Z 17006KT CAVOK M02/M10 Q1040 =
EDDC 231700Z 2318/2418 16006KT CAVOK BECMG 2408/2410 29004KT
TAF
EDDC 231700Z 2318/2418 16006KT CAVOK BECMG 2408/2410 29004KT =
SR / SS: 05:59 / 16:31 UTC (EDAB Flugplatz Bautzen 2019-02-23)
Flugservice Bautzen GmbH, Kornmarkt 34, 02625 Bautzen  Telefon: +49 (3591) 211105, Telefax: +49 (3591) 274512, E-Mail:  flugservice(at)fsbautzen.de